EN

Hourly Weather Ostrynya

Today, 14 May, Friday

Time Temperature Precipitation Wind Pressure Humidity
00:00 +12°C° 0 mm 3 mps 725 mmHg 100%
01:00 +12°C° 0 mm 2 mps 725 mmHg 100%
02:00 +12°C° 0 mm 2 mps 725 mmHg 100%
03:00 +11°C° 0 mm 1 mps 725 mmHg 100%
04:00 +10°C° 0 mm 1 mps 725 mmHg 100%
05:00 +9°C° 0 mm 2 mps 725 mmHg 100%
06:00 +9°C° 0 mm 2 mps 725 mmHg 100%
07:00 +10°C° 0 mm 2 mps 726 mmHg 100%
08:00 +13°C° 0 mm 2 mps 726 mmHg 98%
09:00 +16°C° 0 mm 3 mps 726 mmHg 91%
10:00 +17°C° 0 mm 3 mps 727 mmHg 86%
11:00 +18°C° 0 mm 4 mps 727 mmHg 86%
12:00 +19°C° 0 mm 4 mps 727 mmHg 84%
13:00 +16°C° 1.8 mm 3 mps 726 mmHg 88%
14:00 +16°C° 0.7 mm 3 mps 726 mmHg 95%
15:00 +16°C° 0.3 mm 2 mps 727 mmHg 91%
16:00 +18°C° 0.1 mm 1 mps 726 mmHg 84%
17:00 +19°C° 0 mm 1 mps 726 mmHg 84%
18:00 +18°C° 0 mm 2 mps 726 mmHg 86%
19:00 +18°C° 0 mm 1 mps 726 mmHg 91%
20:00 +16°C° 0 mm 2 mps 726 mmHg 95%
21:00 +15°C° 0 mm 1 mps 727 mmHg 97%
22:00 +14°C° 0 mm 2 mps 727 mmHg 98%
23:00 +14°C° 0 mm 2 mps 727 mmHg 98%

Tomorrow, 15 May, Saturday

Time Temperature Precipitation Wind Pressure Humidity
00:00 +13°C° 0 mm 2 mps 727 mmHg 99%
01:00 +13°C° 0 mm 2 mps 727 mmHg 92%
02:00 +13°C° 0 mm 2 mps 728 mmHg 90%
03:00 +12°C° 0 mm 2 mps 728 mmHg 93%
04:00 +12°C° 0 mm 2 mps 728 mmHg 93%
05:00 +12°C° 0 mm 2 mps 728 mmHg 94%
06:00 +12°C° 0 mm 2 mps 728 mmHg 97%
07:00 +13°C° 0 mm 1 mps 729 mmHg 97%
08:00 +14°C° 0 mm 2 mps 729 mmHg 96%
09:00 +14°C° 0 mm 3 mps 730 mmHg 97%
10:00 +16°C° 0 mm 3 mps 730 mmHg 95%
11:00 +17°C° 0 mm 3 mps 730 mmHg 94%
12:00 +17°C° 0 mm 2 mps 730 mmHg 92%
13:00 +17°C° 0.5 mm 3 mps 730 mmHg 92%
14:00 +18°C° 0.1 mm 3 mps 729 mmHg 89%
15:00 +19°C° 0.1 mm 1 mps 729 mmHg 85%
16:00 +20°C° 0.1 mm 1 mps 729 mmHg 86%
17:00 +20°C° 0 mm 1 mps 729 mmHg 85%
18:00 +20°C° 0 mm 1 mps 729 mmHg 84%
19:00 +17°C° 0 mm 2 mps 729 mmHg 85%
20:00 +18°C° 0 mm 1 mps 730 mmHg 80%
21:00 +16°C° 0 mm 1 mps 729 mmHg 81%
22:00 +15°C° 0 mm 1 mps 729 mmHg 97%
23:00 +15°C° 0 mm 1 mps 729 mmHg 96%

Day after tomorrow, 16 May, Sunday

Time Temperature Precipitation Wind Pressure Humidity
00:00 +14°C° 0 mm 1 mps 729 mmHg 91%
01:00 +13°C° 0 mm 0 mps 729 mmHg 90%
02:00 +14°C° 0 mm 1 mps 729 mmHg 93%
03:00 +13°C° 0 mm 1 mps 729 mmHg 93%
04:00 +13°C° 0 mm 1 mps 729 mmHg 92%
05:00 +13°C° 0 mm 1 mps 729 mmHg 95%
06:00 +12°C° 0 mm 1 mps 729 mmHg 98%
07:00 +14°C° 0 mm 1 mps 730 mmHg 98%
08:00 +15°C° 0 mm 2 mps 730 mmHg 94%
09:00 +17°C° 0 mm 2 mps 730 mmHg 96%
10:00 +19°C° 0 mm 1 mps 730 mmHg 97%
11:00 +19°C° 0 mm 2 mps 730 mmHg 92%
12:00 +20°C° 0 mm 3 mps 730 mmHg 85%
13:00 +20°C° 0 mm 4 mps 729 mmHg 82%
14:00 +21°C° 0 mm 4 mps 729 mmHg 84%
15:00 +19°C° 0.2 mm 6 mps 729 mmHg 86%
16:00 +19°C° 0.4 mm 2 mps 728 mmHg 79%
17:00 +17°C° 0 mm 5 mps 728 mmHg 90%
18:00 +16°C° 0 mm 5 mps 728 mmHg 90%
19:00 +17°C° 0 mm 4 mps 728 mmHg 94%
20:00 +15°C° 0 mm 6 mps 727 mmHg 87%
21:00 +16°C° 0 mm 3 mps 728 mmHg 87%
22:00 +14°C° 0 mm 3 mps 728 mmHg 94%
23:00 +14°C° 0 mm 1 mps 728 mmHg 99%

17 May, Monday

Time Temperature Precipitation Wind Pressure Humidity
00:00 +14°C° 0 mm 1 mps 729 mmHg 93%
01:00 +14°C° 0 mm 1 mps 729 mmHg 92%
02:00 +14°C° 0 mm 1 mps 729 mmHg 94%
03:00 +12°C° 0 mm 3 mps 729 mmHg 97%
04:00 +13°C° 0 mm 2 mps 729 mmHg 98%
05:00 +12°C° 0 mm 2 mps 730 mmHg 98%
06:00 +13°C° 0 mm 2 mps 730 mmHg 99%
07:00 +13°C° 0 mm 3 mps 731 mmHg 96%
08:00 +14°C° 0 mm 3 mps 731 mmHg 94%
09:00 +16°C° 0 mm 2 mps 731 mmHg 92%
10:00 +17°C° 0 mm 2 mps 731 mmHg 88%
11:00 +19°C° 0 mm 1 mps 731 mmHg 84%
12:00 +19°C° 0 mm 1 mps 731 mmHg 80%
13:00 +20°C° 0 mm 1 mps 730 mmHg 75%
14:00 +19°C° 0 mm 0 mps 730 mmHg 69%
15:00 +21°C° 0 mm 1 mps 729 mmHg 66%
16:00 +21°C° 0 mm 1 mps 729 mmHg 66%
17:00 +21°C° 0 mm 1 mps 729 mmHg 70%
18:00 +21°C° 0 mm 1 mps 729 mmHg 73%
19:00 +20°C° 0 mm 1 mps 729 mmHg 82%
20:00 +19°C° 0 mm 1 mps 728 mmHg 87%
21:00 +18°C° 0 mm 1 mps 728 mmHg 90%
22:00 +17°C° 0 mm 3 mps 728 mmHg 94%
23:00 +15°C° 0 mm 4 mps 727 mmHg 90%

18 May, Tuesday

Time Temperature Precipitation Wind Pressure Humidity
00:00 +15°C° 0 mm 4 mps 727 mmHg 91%
01:00 +14°C° 0 mm 3 mps 726 mmHg 96%
02:00 +14°C° 0 mm 3 mps 726 mmHg 99%
03:00 +15°C° 0 mm 1 mps 726 mmHg 100%
04:00 +13°C° 0 mm 5 mps 726 mmHg 97%
05:00 +12°C° 0 mm 5 mps 727 mmHg 97%
06:00 +10°C° 0 mm 5 mps 727 mmHg 96%
07:00 +13°C° 0 mm 5 mps 728 mmHg 95%
08:00 +14°C° 0 mm 6 mps 728 mmHg 92%
09:00 +14°C° 0 mm 7 mps 729 mmHg 92%
10:00 +15°C° 0 mm 7 mps 730 mmHg 90%
11:00 +15°C° 0 mm 6 mps 730 mmHg 88%
12:00 +16°C° 0 mm 6 mps 730 mmHg 84%
13:00 +16°C° 0 mm 6 mps 730 mmHg 83%
14:00 +17°C° 0 mm 5 mps 730 mmHg 77%
15:00 +18°C° 0 mm 4 mps 730 mmHg 79%
16:00 +18°C° 0 mm 3 mps 729 mmHg 78%
17:00 +18°C° 0 mm 3 mps 730 mmHg 77%
18:00 +14°C° 0 mm 5 mps 730 mmHg 87%
19:00 +16°C° 0 mm 2 mps 730 mmHg 73%
20:00 +15°C° 0 mm 1 mps 730 mmHg 81%
21:00 +14°C° 0 mm 1 mps 730 mmHg 85%
22:00 +14°C° 0 mm 1 mps 730 mmHg 93%
23:00 +14°C° 0 mm 1 mps 730 mmHg 85%

19 May, Wednesday

Time Temperature Precipitation Wind Pressure Humidity
00:00 +13°C° 0 mm 2 mps 730 mmHg 88%
01:00 +12°C° 0 mm 0 mps 730 mmHg 91%
02:00 +12°C° 0 mm 2 mps 730 mmHg 97%
03:00 +12°C° 0 mm 1 mps 730 mmHg 100%
04:00 +10°C° 0 mm 2 mps 730 mmHg 100%
05:00 +10°C° 0 mm 2 mps 730 mmHg 100%
06:00 +10°C° 0 mm 3 mps 730 mmHg 100%
07:00 +12°C° 0 mm 2 mps 731 mmHg 100%
08:00 +12°C° 0 mm 2 mps 731 mmHg 100%
09:00 +12°C° 0 mm 3 mps 731 mmHg 98%
10:00 +12°C° 0 mm 3 mps 732 mmHg 98%
11:00 +14°C° 0 mm 4 mps 731 mmHg 94%
12:00 +14°C° 0.1 mm 4 mps 731 mmHg 90%
13:00 +15°C° 0 mm 4 mps 731 mmHg 89%
14:00 +15°C° 1.3 mm 4 mps 731 mmHg 87%
15:00 +15°C° 0.5 mm 4 mps 731 mmHg 91%
16:00 +14°C° 0.6 mm 4 mps 731 mmHg 90%
17:00 +13°C° 8 mm 3 mps 731 mmHg 98%
18:00 +13°C° 5.9 mm 2 mps 731 mmHg 99%
19:00 +13°C° 1.1 mm 1 mps 731 mmHg 99%
20:00 +13°C° 0.4 mm 1 mps 732 mmHg 99%
21:00 +13°C° 0.4 mm 2 mps 732 mmHg 100%
22:00 +12°C° 0.1 mm 2 mps 732 mmHg 100%
23:00 +12°C° 0 mm 2 mps 732 mmHg 99%
Show more

We Need Your Consent

Meteoprog and our Service Providers may store and access personal data such as cookies, device identifiers or other similar technologies on your device and process such data to personalise content and ads, as well as provide social media features and to analyse the traffic.

  • Store and/or access information on your device

    Cookies, device identifiers or other information can be stored or accessed on your device for the purposes indicated above.

  • Personalised ads and content, ad and content measurement, audience insights, and products development

    Ads and content can be personalised based on a profile. More data can be added to better personalise ads and content. Ad and content performance can be measured. Insights about the audience who saw the ads and content can be derived. Such data can be used to develop or improve user’s experience, systems and software.

By clicking ‘I Agree’ you will allow the use of indicated cookies, device identifiers, web beacons or other similar technologies. Your settings can be changed in the browser on your device.

For certain purposes, legitimate interests may be relied on, rather than consent. You can read more about this in our Privacy and Cookie Policy.